TimePDT,TemperatureF,Dew PointF,Humidity,Sea Level PressureIn,VisibilityMPH,Wind Direction,Wind SpeedMPH,Gust SpeedMPH,PrecipitationIn,Events,Conditions,WindDirDegrees,DateUTC
12:53 AM,43.0,27.0,53,30.09,10.0,Calm,Calm,-,N/A,,Clear,0,2013-03-23 07:53:00
1:53 AM,44.1,26.1,49,30.09,10.0,ESE,3.5,-,N/A,,Clear,110,2013-03-23 08:53:00
2:53 AM,42.1,28.0,58,30.09,10.0,Calm,Calm,-,N/A,,Clear,0,2013-03-23 09:53:00
3:53 AM,39.9,28.0,63,30.09,10.0,Calm,Calm,-,N/A,,Clear,0,2013-03-23 10:53:00
4:53 AM,42.1,26.1,53,30.09,10.0,Calm,Calm,-,N/A,,Clear,0,2013-03-23 11:53:00
5:53 AM,42.1,26.1,53,30.10,10.0,NE,3.5,-,N/A,,Clear,50,2013-03-23 12:53:00
6:53 AM,44.1,25.0,47,30.12,10.0,Calm,Calm,-,N/A,,Clear,0,2013-03-23 13:53:00
7:53 AM,45.0,26.1,48,30.14,10.0,Calm,Calm,-,N/A,,Clear,0,2013-03-23 14:53:00
8:53 AM,52.0,25.0,35,30.15,10.0,East,9.2,-,N/A,,Clear,80,2013-03-23 15:53:00
9:53 AM,54.0,25.0,33,30.15,10.0,East,10.4,-,N/A,,Clear,90,2013-03-23 16:53:00
10:53 AM,57.9,25.0,28,30.14,10.0,ENE,10.4,-,N/A,,Clear,60,2013-03-23 17:53:00
11:53 AM,61.0,26.1,26,30.13,10.0,ENE,12.7,-,N/A,,Clear,60,2013-03-23 18:53:00
12:53 PM,63.0,27.0,26,30.11,10.0,East,8.1,-,N/A,,Clear,80,2013-03-23 19:53:00
1:53 PM,66.0,27.0,23,30.09,10.0,East,8.1,-,N/A,,Clear,90,2013-03-23 20:53:00
2:53 PM,66.9,25.0,21,30.06,10.0,Calm,Calm,-,N/A,,Clear,0,2013-03-23 21:53:00
3:53 PM,68.0,24.1,19,30.05,10.0,Calm,Calm,-,N/A,,Clear,0,2013-03-23 22:53:00
4:53 PM,68.0,27.0,21,30.04,10.0,Calm,Calm,-,N/A,,Clear,0,2013-03-23 23:53:00
5:53 PM,69.1,27.0,21,30.03,10.0,Calm,Calm,-,N/A,,Clear,0,2013-03-24 00:53:00
7:53 PM,57.0,36.0,45,30.06,10.0,WNW,10.4,-,N/A,,Clear,290,2013-03-24 02:53:00
8:53 PM,55.0,37.0,51,30.06,10.0,WNW,3.5,-,N/A,,Clear,300,2013-03-24 03:53:00
9:53 PM,53.1,37.0,55,30.08,10.0,Calm,Calm,-,N/A,,Clear,0,2013-03-24 04:53:00
10:53 PM,48.9,36.0,61,30.08,10.0,Calm,Calm,-,N/A,,Clear,0,2013-03-24 05:53:00
11:53 PM,46.0,36.0,68,30.08,10.0,Calm,Calm,-,N/A,,Clear,0,2013-03-24 06:53:00